Simultaneous Nadir Overpasses (SNOs) Predictions

Prediction of SNOs between METOP-B and NOAA-19 Satellite Orbit:

Table of predicted SNOs for the next 14.0 days since TLE Epoch: 10/31/2020
Index Date (METOP-B) Time (METOP-B) Lat,Lon (METOP-B) SZA (METOP-B ) Date (NOAA-19) Time (NOAA-19) Lat,Lon (NOAA-19) SZA (NOAA-19 ) Distance(km) Time Diff (sec)
1 11/01/2020 09:36:00 80.23, 60.86 96.00 11/01/2020 09:34:58 80.25, 60.82 95.99 2.37 62
2 11/01/2020 10:26:41 -80.25,-131.65 83.97 11/01/2020 10:26:00 -80.23,-131.59 83.99 2.15 41
3 11/01/2020 11:17:22 80.22, 35.39 96.00 11/01/2020 11:16:58 80.24, 35.48 96.02 2.78 24
4 11/01/2020 12:08:03 -80.24,-157.11 83.96 11/01/2020 12:08:01 -80.24,-157.25 83.97 2.73 2
5 11/01/2020 12:58:43 80.24, 10.25 96.06 11/01/2020 12:58:58 80.23, 10.14 96.05 2.16 15
6 11/01/2020 13:49:25 -80.23, 177.43 83.96 11/01/2020 13:50:01 -80.23, 177.41 83.95 0.57 36
7 11/01/2020 14:40:05 80.23, -15.21 96.06 11/01/2020 14:40:58 80.22, -15.20 96.07 0.62 53
8 11/01/2020 15:30:47 -80.22, 151.97 83.96 11/01/2020 15:32:01 -80.22, 152.08 83.92 2.05 74
9 11/12/2020 11:40:09 -80.25,-150.00 80.75 11/12/2020 11:39:14 -80.26,-149.94 80.75 1.98 55
10 11/12/2020 12:30:49 80.25, 17.36 99.27 11/12/2020 12:30:09 80.25, 17.44 99.27 1.57 40
11 11/12/2020 13:21:30 -80.26,-175.15 80.70 11/12/2020 13:21:14 -80.25,-175.28 80.73 2.73 16
12 11/12/2020 14:12:10 80.26, -7.79 99.32 11/12/2020 14:12:09 80.24, -7.91 99.29 3.16 1
13 11/12/2020 15:02:52 -80.25, 159.38 80.70 11/12/2020 15:03:14 -80.24, 159.38 80.70 1.23 22
14 11/12/2020 15:53:32 80.25, -33.25 99.32 11/12/2020 15:54:09 80.23, -33.25 99.31 2.23 37
15 11/12/2020 16:44:14 -80.24, 133.92 80.70 11/12/2020 16:45:14 -80.23, 134.04 80.68 2.53 60
